Location: Fernhill
(41.0167°S, 175.6333°E)
Time: 16:38:06
(UTC+00:00)

Cosmos 1833 Rocket - Pass Details

Date: 22 February 2026
Orbit: 832 x 837 km, 71.0° (Epoch: 8 March)

Event Time Altitude Azimuth Distance (km) Brightness Sun altitude
Exits shadow 11:48:58 23° 153° (SSE) 1,741 4.7 -38.0°
Drops below altitude 10° 11:50:57 10° 154° (SSE) 2,477 5.6 -38.1°
Sets 11:53:25 0° 155° (SSE) 3,419 6.5 -38.2°
